This is the latest recevied weather packets stored in our database for station/object HB9DDE-10. If no packets are shown the sender has not sent any weather packets the latest 10 day(s).
| Time | Temp. | Humidity | Pressure | Rain* | Wind** | Luminosity | Snow |
|---|---|---|---|---|---|---|---|
| 1777835916 | 15° C | 78% | 1016 hPa | 0 mm | - | - | - |
| 1777835626 | 15° C | 77% | 1015.9 hPa | 0 mm | - | - | - |
| 1777835315 | 15.56° C | 77% | 1015.9 hPa | 0 mm | - | - | - |
| 1777835023 | 15.56° C | 78% | 1015.8 hPa | 0 mm | - | - | - |
| 1777834731 | 15.56° C | 78% | 1015.7 hPa | 0 mm | - | - | - |
| 1777834422 | 16.11° C | 78% | 1015.6 hPa | 0 mm | - | - | - |
| 1777834131 | 16.11° C | 76% | 1015.6 hPa | 0 mm | - | - | - |
| 1777833826 | 16.67° C | 74% | 1015.5 hPa | 0 mm | - | - | - |
| 1777833514 | 16.67° C | 73% | 1015.5 hPa | 0 mm | - | - | - |
| 1777833223 | 17.22° C | 72% | 1015.5 hPa | 0 mm | - | - | - |
| 1777832931 | 17.22° C | 70% | 1015.5 hPa | 0 mm | - | - | - |
| 1777832622 | 17.22° C | 67% | 1015.5 hPa | 0 mm | - | - | - |
| 1777832331 | 17.22° C | 65% | 1015.5 hPa | 0 mm | - | - | - |
| 1777832021 | 17.22° C | 67% | 1015.4 hPa | 0 mm | - | - | - |
| 1777831731 | 17.78° C | 68% | 1015.4 hPa | 0 mm | - | - | - |
| 1777831422 | 17.22° C | 66% | 1015.4 hPa | 0 mm | - | - | - |
| 1777831114 | 17.22° C | 66% | 1015.3 hPa | 0 mm | - | - | - |
| 1777830825 | 17.22° C | 66% | 1015.2 hPa | 0 mm | - | - | - |
| 1777830514 | 17.78° C | 66% | 1015.3 hPa | 0 mm | - | - | - |
| 1777830226 | 17.78° C | 66% | 1015.3 hPa | 0 mm | - | - | - |
| 1777829918 | 17.78° C | 64% | 1015.4 hPa | 0 mm | - | - | - |
| 1777829626 | 17.78° C | 65% | 1015.5 hPa | 0 mm | - | - | - |
| 1777829316 | 17.78° C | 65% | 1015.5 hPa | 0 mm | - | - | - |
| 1777829025 | 17.78° C | 65% | 1015.6 hPa | 0 mm | - | - | - |
| 1777828719 | 18.33° C | 64% | 1015.6 hPa | 0 mm | - | - | - |
* Rain latest hour (hover to see other rain measurements)
** Current wind speed in m/s (hover to see current wind gust speed)